Orbital Elements at Epoch 2459200.5 (2020-Dec-17.0) TDB
Reference: JPL 16 (heliocentric ecliptic J2000)
Element | Value | Uncertainty (1-sigma) | Units |
e | .1229537782507523 | 3.5125e-08 | |
a | 2.256584036600351 | 1.0019e-08 | au |
q | 1.979128503360004 | 7.8444e-08 | au |
i | 3.375771373844975 | 3.7754e-06 | deg |
node | 147.1973323097041 | 7.2726e-05 | deg |
peri | 191.9974083286742 | 7.4635e-05 | deg |
M | 253.7763881854203 | 1.7246e-05 | deg |
tp | 2459565.837504266251 (2021-Dec-17.33750427) | 5.9875e-05 | TDB |
period | 1238.156934123366 3.39 | 8.246e-06 2.258e-08 | d yr |
n | .2907547420512453 | 1.9364e-09 | deg/d |
Q | 2.534039569840699 | 1.1251e-08 | au |
|
| | Orbit Determination Parameters
Additional Information
|